Tracking 28799 objects as of 18-Apr-2024
HD Live streaming from Space Station
objects crossing your sky now

METEOR 2-17 DEB

Track METEOR 2-17 DEB now!
10-day predictions


NORAD ID: 35371
Int'l Code: 1988-005AF
Perigee: 893.2 km
Apogee: 909.1 km
Inclination: 82.5 °
Period: 102.9 minutes
Semi major axis: 7272 km
RCS: 0.0006 m2 (small)
Launch date: January 30, 1988
Source: Commonwealth of Independent States (former USSR) (CIS)
Launch site: PLESETSK MISSILE AND SPACE COMPLEX (PKMTR)

Note: This is SATELLITE DEBRIS
Your satellite tracking list
Your tracking list is empty




NASA's NSSDC Master Catalog

Two Line Element Set (TLE):
1 35371U 88005AF  24098.94539364  .00001874  00000-0  12650-2 0  9992
2 35371  82.5154 169.2872 0010919  13.7827 346.3637 13.99941251863978
Source of the keplerian elements: AFSPC